Time,TemperatureF,DewpointF,PressureIn,WindDirection,WindDirectionDegrees,WindSpeedMPH,WindSpeedGustMPH,Humidity,HourlyPrecipIn,Conditions,Clouds,dailyrainin,SoftwareType,DateUTC
2013-03-08 00:00:00,28.3,25.7,29.98,NNE,23,2.5,8.5,90,0.00,,,0.00,WUHU216HW,2013-03-08 05:00:00,
2013-03-08 00:02:00,28.3,25.7,29.97,NNE,23,5.1,8.5,90,0.00,,,0.00,WUHU216HW,2013-03-08 05:02:00,
2013-03-08 00:07:00,28.3,25.7,29.98,NNW,338,4.0,8.5,90,0.00,,,0.00,WUHU216HW,2013-03-08 05:07:00,
2013-03-08 00:11:00,28.3,25.7,29.98,NNE,15,2.7,5.1,90,0.00,,,0.00,WUHU216HW,2013-03-08 05:11:00,
2013-03-08 00:16:00,28.3,25.7,29.97,NW,318,3.3,6.9,90,0.00,,,0.00,WUHU216HW,2013-03-08 05:16:00,
2013-03-08 00:21:00,28.3,25.7,29.97,North,1,3.0,6.9,90,0.00,,,0.00,WUHU216HW,2013-03-08 05:21:00,
2013-03-08 00:26:00,28.3,25.7,29.97,NE,46,2.8,5.6,90,0.00,,,0.00,WUHU216HW,2013-03-08 05:26:00,
2013-03-08 00:31:00,28.3,25.7,29.97,NNW,338,4.2,5.6,90,0.00,,,0.00,WUHU216HW,2013-03-08 05:31:00,
2013-03-08 00:36:00,28.3,25.7,29.98,NE,42,3.4,5.6,90,0.00,,,0.00,WUHU216HW,2013-03-08 05:36:00,
2013-03-08 00:41:00,28.3,25.7,29.97,North,0,1.9,4.7,90,0.00,,,0.00,WUHU216HW,2013-03-08 05:41:00,
2013-03-08 00:46:00,28.3,25.7,29.97,NNW,338,2.5,4.9,90,0.00,,,0.00,WUHU216HW,2013-03-08 05:46:00,
2013-03-08 00:51:00,28.3,25.7,29.97,NNW,328,1.9,4.9,90,0.00,,,0.00,WUHU216HW,2013-03-08 05:51:00,
2013-03-08 00:57:00,28.3,25.7,29.97,NE,45,5.1,5.1,90,0.00,,,0.00,WUHU216HW,2013-03-08 05:57:00,
2013-03-08 01:02:00,28.3,25.7,29.97,North,0,6.0,6.0,90,0.00,,,0.00,WUHU216HW,2013-03-08 06:02:00,
2013-03-08 01:07:00,28.3,25.7,29.97,NNW,338,3.6,6.0,90,0.00,,,0.00,WUHU216HW,2013-03-08 06:07:00,
2013-03-08 01:12:00,28.1,25.6,29.96,North,2,3.3,6.0,90,0.00,,,0.00,WUHU216HW,2013-03-08 06:12:00,
2013-03-08 01:17:00,28.1,25.8,29.96,NW,324,2.2,6.0,91,0.00,,,0.00,WUHU216HW,2013-03-08 06:17:00,
2013-03-08 01:22:00,28.1,25.6,29.96,NNW,338,3.4,5.8,90,0.00,,,0.00,WUHU216HW,2013-03-08 06:22:00,
2013-03-08 01:27:00,28.1,25.6,29.96,NNW,338,2.2,4.0,90,0.00,,,0.00,WUHU216HW,2013-03-08 06:27:00,
2013-03-08 01:32:00,28.1,25.6,29.96,North,358,3.2,4.0,90,0.00,,,0.00,WUHU216HW,2013-03-08 06:32:00,
2013-03-08 01:37:00,28.1,25.6,29.96,WNW,293,3.8,3.8,90,0.00,,,0.00,WUHU216HW,2013-03-08 06:37:00,
2013-03-08 01:42:00,28.1,25.6,29.96,NNE,23,2.5,3.8,90,0.00,,,0.00,WUHU216HW,2013-03-08 06:42:00,
2013-03-08 01:47:00,28.1,25.6,29.96,NNW,338,4.5,4.7,90,0.00,,,0.00,WUHU216HW,2013-03-08 06:47:00,
2013-03-08 01:52:00,28.1,25.6,29.96,SW,225,2.0,5.4,90,0.00,,,0.00,WUHU216HW,2013-03-08 06:52:00,
2013-03-08 01:57:00,28.1,25.6,29.96,NNW,338,3.8,6.7,90,0.00,,,0.00,WUHU216HW,2013-03-08 06:57:00,
2013-03-08 02:02:00,28.1,25.6,29.95,NE,43,5.1,6.7,90,0.00,,,0.00,WUHU216HW,2013-03-08 07:02:00,
2013-03-08 02:07:00,28.1,25.6,29.95,North,350,4.9,5.6,90,0.00,,,0.00,WUHU216HW,2013-03-08 07:07:00,
2013-03-08 02:12:00,28.1,25.6,29.95,North,10,2.7,5.6,90,0.00,,,0.00,WUHU216HW,2013-03-08 07:12:00,
2013-03-08 02:16:00,27.9,25.4,29.95,North,10,1.3,3.6,90,0.00,,,0.00,WUHU216HW,2013-03-08 07:16:00,
2013-03-08 02:21:00,27.9,25.4,29.94,NE,45,3.4,4.0,90,0.00,,,0.00,WUHU216HW,2013-03-08 07:21:00,
2013-03-08 02:27:00,27.9,25.7,29.94,NNW,338,7.2,7.2,91,0.00,,,0.00,WUHU216HW,2013-03-08 07:27:00,
2013-03-08 02:32:00,27.9,25.4,29.94,NW,315,2.5,7.2,90,0.00,,,0.00,WUHU216HW,2013-03-08 07:32:00,
2013-03-08 02:37:00,27.9,25.4,29.94,NNW,338,3.4,4.0,90,0.00,,,0.00,WUHU216HW,2013-03-08 07:37:00,
2013-03-08 02:42:00,27.9,25.7,29.94,NW,315,2.2,5.4,91,0.00,,,0.00,WUHU216HW,2013-03-08 07:42:00,
2013-03-08 02:47:00,27.9,25.7,29.94,North,357,4.8,6.5,91,0.00,,,0.00,WUHU216HW,2013-03-08 07:47:00,
2013-03-08 02:52:00,27.9,25.7,29.94,North,9,2.8,6.5,91,0.00,,,0.00,WUHU216HW,2013-03-08 07:52:00,
2013-03-08 02:57:00,27.9,25.7,29.93,NNW,338,3.6,3.6,91,0.00,,,0.00,WUHU216HW,2013-03-08 07:57:00,
2013-03-08 03:02:00,27.9,25.7,29.93,SW,224,2.8,4.0,91,0.00,,,0.00,WUHU216HW,2013-03-08 08:02:00,
2013-03-08 03:06:00,27.9,25.7,29.93,WSW,244,3.8,4.7,91,0.00,,,0.00,WUHU216HW,2013-03-08 08:06:00,
2013-03-08 03:11:00,27.9,25.7,29.93,NNW,327,2.0,4.7,91,0.00,,,0.00,WUHU216HW,2013-03-08 08:11:00,
2013-03-08 03:16:00,27.9,25.7,29.93,West,273,2.7,4.0,91,0.00,,,0.00,WUHU216HW,2013-03-08 08:16:00,
2013-03-08 03:21:00,27.9,25.7,29.93,WNW,293,1.3,4.0,91,0.00,,,0.00,WUHU216HW,2013-03-08 08:21:00,
2013-03-08 03:26:00,27.9,25.7,29.93,East,90,3.1,4.0,91,0.00,,,0.00,WUHU216HW,2013-03-08 08:26:00,
2013-03-08 03:31:00,27.9,25.7,29.93,NNW,338,5.1,5.6,91,0.00,,,0.00,WUHU216HW,2013-03-08 08:31:00,
2013-03-08 03:36:00,27.9,25.7,29.93,NNW,338,2.2,5.6,91,0.00,,,0.00,WUHU216HW,2013-03-08 08:36:00,
2013-03-08 03:42:00,27.9,25.7,29.93,NNW,338,4.7,4.7,91,0.00,,,0.00,WUHU216HW,2013-03-08 08:42:00,
2013-03-08 03:47:00,27.9,25.7,29.93,WNW,293,2.5,4.7,91,0.00,,,0.00,WUHU216HW,2013-03-08 08:47:00,
2013-03-08 03:51:00,27.9,25.7,29.93,WNW,287,1.5,4.7,91,0.00,,,0.00,WUHU216HW,2013-03-08 08:51:00,
2013-03-08 03:56:00,27.9,25.7,29.94,NNE,23,2.7,6.3,91,0.00,,,0.00,WUHU216HW,2013-03-08 08:56:00,
2013-03-08 04:01:00,27.9,25.7,29.93,North,0,4.5,6.3,91,0.00,,,0.00,WUHU216HW,2013-03-08 09:01:00,
2013-03-08 04:06:00,27.9,25.7,29.94,North,350,2.0,7.4,91,0.00,,,0.00,WUHU216HW,2013-03-08 09:06:00,
2013-03-08 04:11:00,28.1,25.8,29.93,NNE,23,5.4,7.4,91,0.00,,,0.00,WUHU216HW,2013-03-08 09:11:00,
2013-03-08 04:16:00,28.1,25.8,29.93,NE,45,8.1,8.1,91,0.00,,,0.00,WUHU216HW,2013-03-08 09:16:00,
2013-03-08 04:21:00,28.1,25.8,29.93,North,356,2.4,8.1,91,0.00,,,0.00,WUHU216HW,2013-03-08 09:21:00,
2013-03-08 04:26:00,28.1,25.8,29.93,North,351,3.5,5.8,91,0.00,,,0.00,WUHU216HW,2013-03-08 09:26:00,
2013-03-08 04:31:00,28.1,25.8,29.93,NW,321,2.4,7.6,91,0.00,,,0.00,WUHU216HW,2013-03-08 09:31:00,
2013-03-08 04:37:00,28.1,25.8,29.93,SSE,163,3.2,7.6,91,0.00,,,0.00,WUHU216HW,2013-03-08 09:37:00,
2013-03-08 04:42:00,28.1,25.8,29.93,North,6,2.9,5.1,91,0.00,,,0.00,WUHU216HW,2013-03-08 09:42:00,
2013-03-08 04:47:00,28.1,25.8,29.93,North,0,3.8,5.4,91,0.00,,,0.00,WUHU216HW,2013-03-08 09:47:00,
2013-03-08 04:52:00,28.1,25.8,29.93,North,0,1.8,5.4,91,0.00,,,0.00,WUHU216HW,2013-03-08 09:52:00,
2013-03-08 04:57:00,28.1,25.8,29.93,North,0,5.6,6.0,91,0.00,,,0.00,WUHU216HW,2013-03-08 09:57:00,
2013-03-08 05:02:00,28.1,25.8,29.93,NE,45,3.1,6.0,91,0.00,,,0.00,WUHU216HW,2013-03-08 10:02:00,
2013-03-08 05:06:00,28.1,25.8,29.93,NW,325,3.1,4.7,91,0.00,,,0.00,WUHU216HW,2013-03-08 10:06:00,
2013-03-08 05:12:00,28.1,25.8,29.93,West,260,3.3,6.5,91,0.00,,,0.00,WUHU216HW,2013-03-08 10:12:00,
2013-03-08 05:16:00,28.1,25.8,29.93,North,0,4.1,6.5,91,0.00,,,0.00,WUHU216HW,2013-03-08 10:16:00,
2013-03-08 05:21:00,28.1,25.8,29.93,NE,45,3.8,4.7,91,0.00,,,0.00,WUHU216HW,2013-03-08 10:21:00,
2013-03-08 05:26:00,28.1,25.8,29.93,NW,315,2.2,5.6,91,0.00,,,0.00,WUHU216HW,2013-03-08 10:26:00,
2013-03-08 05:31:00,28.1,25.8,29.93,NNE,13,3.8,6.3,91,0.00,,,0.00,WUHU216HW,2013-03-08 10:31:00,
2013-03-08 05:36:00,28.1,25.8,29.93,NE,45,3.4,6.3,91,0.00,,,0.00,WUHU216HW,2013-03-08 10:36:00,
2013-03-08 05:41:00,28.1,25.8,29.93,NNE,30,2.7,3.6,91,0.00,,,0.00,WUHU216HW,2013-03-08 10:41:00,
2013-03-08 05:46:00,28.1,25.8,29.93,ENE,68,5.4,5.4,91,0.00,,,0.00,WUHU216HW,2013-03-08 10:46:00,
2013-03-08 05:51:00,28.1,25.8,29.94,NNE,23,5.4,5.4,91,0.00,,,0.00,WUHU216HW,2013-03-08 10:51:00,
2013-03-08 05:56:00,28.1,25.8,29.94,North,0,2.9,5.4,91,0.00,,,0.00,WUHU216HW,2013-03-08 10:56:00,
2013-03-08 06:01:00,28.3,26.0,29.94,North,354,4.3,6.3,91,0.00,,,0.00,WUHU216HW,2013-03-08 11:01:00,
2013-03-08 06:06:00,28.3,26.0,29.94,NE,45,4.5,8.1,91,0.00,,,0.00,WUHU216HW,2013-03-08 11:06:00,
2013-03-08 06:11:00,28.1,25.8,29.94,NE,37,5.3,8.1,91,0.00,,,0.00,WUHU216HW,2013-03-08 11:11:00,
2013-03-08 06:16:00,28.1,25.8,29.94,North,0,7.6,7.6,91,0.00,,,0.00,WUHU216HW,2013-03-08 11:16:00,
2013-03-08 06:21:00,28.1,25.8,29.94,NNE,23,3.6,7.6,91,0.00,,,0.00,WUHU216HW,2013-03-08 11:21:00,
2013-03-08 06:26:00,28.3,26.0,29.94,North,353,5.1,6.5,91,0.00,,,0.00,WUHU216HW,2013-03-08 11:26:00,
2013-03-08 06:31:00,28.3,26.0,29.94,North,0,3.8,6.5,91,0.00,,,0.00,WUHU216HW,2013-03-08 11:31:00,
2013-03-08 06:36:00,28.1,25.8,29.94,NNW,338,6.9,9.8,91,0.00,,,0.00,WUHU216HW,2013-03-08 11:36:00,
2013-03-08 06:41:00,28.3,26.0,29.94,North,5,3.0,9.8,91,0.00,,,0.00,WUHU216HW,2013-03-08 11:41:00,
2013-03-08 06:46:00,28.3,26.0,29.94,North,353,1.7,5.6,91,0.00,,,0.00,WUHU216HW,2013-03-08 11:46:00,
2013-03-08 06:51:00,28.3,26.0,29.94,NNW,338,2.9,5.6,91,0.00,,,0.00,WUHU216HW,2013-03-08 11:51:00,
2013-03-08 06:56:00,28.3,26.0,29.94,North,9,4.3,5.4,91,0.00,,,0.00,WUHU216HW,2013-03-08 11:56:00,
2013-03-08 07:01:00,28.4,26.2,29.94,NNW,333,5.9,6.3,91,0.00,,,0.00,WUHU216HW,2013-03-08 12:01:00,
2013-03-08 07:06:00,28.4,26.2,29.94,NE,45,6.7,6.7,91,0.00,,,0.00,WUHU216HW,2013-03-08 12:06:00,
2013-03-08 07:11:00,28.4,26.2,29.94,NNW,338,3.1,9.2,91,0.00,,,0.00,WUHU216HW,2013-03-08 12:11:00,
2013-03-08 07:16:00,28.4,26.2,29.94,NNE,23,6.9,9.2,91,0.00,,,0.00,WUHU216HW,2013-03-08 12:16:00,
2013-03-08 07:21:00,28.4,26.2,29.95,NNE,23,8.1,8.5,91,0.00,,,0.00,WUHU216HW,2013-03-08 12:21:00,
2013-03-08 07:26:00,28.4,26.2,29.95,NW,315,4.3,8.5,91,0.00,,,0.00,WUHU216HW,2013-03-08 12:26:00,
2013-03-08 07:31:00,28.4,26.2,29.95,NNW,338,7.2,10.5,91,0.00,,,0.00,WUHU216HW,2013-03-08 12:31:00,
2013-03-08 07:36:00,28.4,26.2,29.94,NNE,23,9.2,10.5,91,0.00,,,0.00,WUHU216HW,2013-03-08 12:36:00,
2013-03-08 07:41:00,28.4,26.2,29.94,North,0,8.7,9.2,91,0.00,,,0.00,WUHU216HW,2013-03-08 12:41:00,
2013-03-08 07:46:00,28.4,26.2,29.95,NNE,15,5.1,8.7,91,0.00,,,0.00,WUHU216HW,2013-03-08 12:46:00,
2013-03-08 07:51:00,28.4,26.2,29.95,NW,315,2.5,8.7,91,0.00,,,0.00,WUHU216HW,2013-03-08 12:51:00,
2013-03-08 07:56:00,28.4,26.2,29.95,North,0,4.3,8.7,91,0.00,,,0.00,WUHU216HW,2013-03-08 12:56:00,
2013-03-08 08:01:00,28.4,26.2,29.95,NE,45,7.6,9.4,91,0.00,,,0.00,WUHU216HW,2013-03-08 13:01:00,
2013-03-08 08:06:00,28.4,26.2,29.95,North,350,4.0,9.4,91,0.00,,,0.00,WUHU216HW,2013-03-08 13:06:00,
2013-03-08 08:11:00,28.4,26.2,29.95,North,10,3.2,7.4,91,0.00,,,0.00,WUHU216HW,2013-03-08 13:11:00,
2013-03-08 08:16:00,28.4,26.2,29.95,East,90,6.9,7.6,91,0.00,,,0.00,WUHU216HW,2013-03-08 13:16:00,
2013-03-08 08:21:00,28.4,26.2,29.95,North,0,5.1,7.6,91,0.00,,,0.00,WUHU216HW,2013-03-08 13:21:00,
2013-03-08 08:26:00,28.4,26.2,29.95,NNE,23,4.0,9.4,91,0.00,,,0.00,WUHU216HW,2013-03-08 13:26:00,
2013-03-08 08:31:00,28.4,26.2,29.95,NNW,338,3.1,11.4,91,0.00,,,0.00,WUHU216HW,2013-03-08 13:31:00,
2013-03-08 08:36:00,28.6,26.4,29.95,North,0,11.6,11.6,91,0.00,,,0.00,WUHU216HW,2013-03-08 13:36:00,
2013-03-08 08:41:00,28.8,26.6,29.95,NE,45,7.6,11.6,91,0.00,,,0.00,WUHU216HW,2013-03-08 13:41:00,
2013-03-08 08:46:00,28.8,26.6,29.95,NNE,23,5.3,7.6,91,0.00,,,0.00,WUHU216HW,2013-03-08 13:46:00,
2013-03-08 08:51:00,28.8,26.6,29.95,NNW,340,4.7,7.8,91,0.00,,,0.00,WUHU216HW,2013-03-08 13:51:00,
2013-03-08 08:57:00,28.8,26.6,29.95,NE,45,5.8,7.8,91,0.00,,,0.00,WUHU216HW,2013-03-08 13:57:00,
2013-03-08 09:02:00,28.8,26.6,29.95,NE,45,7.4,7.4,91,0.00,,,0.00,WUHU216HW,2013-03-08 14:02:00,
2013-03-08 09:06:00,28.8,26.6,29.95,North,0,4.8,7.4,91,0.00,,,0.00,WUHU216HW,2013-03-08 14:06:00,
2013-03-08 09:12:00,28.8,26.6,29.95,WNW,286,2.2,7.4,91,0.00,,,0.00,WUHU216HW,2013-03-08 14:12:00,
2013-03-08 09:17:00,29.0,26.7,29.95,NNE,23,6.7,6.7,91,0.00,,,0.00,WUHU216HW,2013-03-08 14:17:00,
2013-03-08 09:22:00,29.0,26.7,29.95,NW,307,6.4,10.5,91,0.00,,,0.00,WUHU216HW,2013-03-08 14:22:00,
2013-03-08 09:27:00,29.0,26.7,29.95,NNE,23,6.3,10.5,91,0.00,,,0.00,WUHU216HW,2013-03-08 14:27:00,
2013-03-08 09:32:00,29.0,26.7,29.95,North,0,6.3,6.3,91,0.00,,,0.00,WUHU216HW,2013-03-08 14:32:00,
2013-03-08 09:37:00,29.0,26.7,29.96,NNE,23,6.9,8.9,91,0.00,,,0.00,WUHU216HW,2013-03-08 14:37:00,
2013-03-08 09:42:00,29.0,26.7,29.96,NNW,338,5.4,8.9,91,0.00,,,0.00,WUHU216HW,2013-03-08 14:42:00,
2013-03-08 09:47:00,29.0,26.7,29.96,NW,315,4.7,6.3,91,0.00,,,0.00,WUHU216HW,2013-03-08 14:47:00,
2013-03-08 09:52:00,29.0,26.7,29.96,NNE,31,4.0,9.2,91,0.00,,,0.00,WUHU216HW,2013-03-08 14:52:00,
2013-03-08 09:57:00,29.0,26.7,29.96,North,0,4.0,9.2,91,0.00,,,0.00,WUHU216HW,2013-03-08 14:57:00,
2013-03-08 10:02:00,29.2,26.9,29.97,NW,311,3.6,8.9,91,0.00,,,0.00,WUHU216HW,2013-03-08 15:02:00,
2013-03-08 10:07:00,29.2,26.9,29.97,East,90,5.1,8.9,91,0.00,,,0.00,WUHU216HW,2013-03-08 15:07:00,
2013-03-08 10:12:00,29.0,26.7,29.97,NE,35,6.2,11.4,91,0.00,,,0.00,WUHU216HW,2013-03-08 15:12:00,
2013-03-08 10:17:00,29.2,26.9,29.97,North,0,5.1,11.4,91,0.00,,,0.00,WUHU216HW,2013-03-08 15:17:00,
2013-03-08 10:22:00,29.2,26.9,29.97,North,357,2.6,6.3,91,0.00,,,0.00,WUHU216HW,2013-03-08 15:22:00,
2013-03-08 10:27:00,29.2,26.9,29.97,NNE,23,3.6,6.0,91,0.00,,,0.00,WUHU216HW,2013-03-08 15:27:00,
2013-03-08 10:32:00,29.3,27.1,29.97,NNE,17,4.7,7.4,91,0.00,,,0.00,WUHU216HW,2013-03-08 15:32:00,
2013-03-08 10:37:00,29.5,27.3,29.97,NE,45,10.1,10.1,91,0.00,,,0.00,WUHU216HW,2013-03-08 15:37:00,
2013-03-08 10:42:00,29.5,27.3,29.97,NW,315,4.7,10.1,91,0.00,,,0.00,WUHU216HW,2013-03-08 15:42:00,
2013-03-08 10:47:00,29.5,27.3,29.96,NW,315,3.3,6.3,91,0.00,,,0.00,WUHU216HW,2013-03-08 15:47:00,
2013-03-08 10:52:00,29.5,27.3,29.97,NNE,23,3.5,6.9,91,0.00,,,0.00,WUHU216HW,2013-03-08 15:52:00,
2013-03-08 10:57:00,29.3,27.1,29.97,North,355,2.8,8.3,91,0.00,,,0.00,WUHU216HW,2013-03-08 15:57:00,
2013-03-08 11:02:00,29.5,27.3,29.98,NNE,17,4.7,8.3,91,0.00,,,0.00,WUHU216HW,2013-03-08 16:02:00,
2013-03-08 11:07:00,29.7,27.5,29.98,North,0,3.6,6.9,91,0.00,,,0.00,WUHU216HW,2013-03-08 16:07:00,
2013-03-08 11:12:00,29.9,27.6,29.98,NW,315,6.5,6.5,91,0.00,,,0.00,WUHU216HW,2013-03-08 16:12:00,
2013-03-08 11:17:00,29.7,27.5,29.98,NNE,18,6.6,7.8,91,0.00,,,0.00,WUHU216HW,2013-03-08 16:17:00,
2013-03-08 11:22:00,29.7,27.5,29.98,NNW,339,4.1,7.8,91,0.00,,,0.00,WUHU216HW,2013-03-08 16:22:00,
2013-03-08 11:27:00,29.9,27.6,29.98,NE,45,3.1,5.6,91,0.00,,,0.00,WUHU216HW,2013-03-08 16:27:00,
2013-03-08 11:32:00,29.9,27.6,29.98,NW,315,4.3,5.6,91,0.00,,,0.00,WUHU216HW,2013-03-08 16:32:00,
2013-03-08 11:37:00,29.9,27.6,29.98,NW,315,7.2,7.6,91,0.00,,,0.00,WUHU216HW,2013-03-08 16:37:00,
2013-03-08 11:42:00,30.1,27.8,29.98,NNE,23,6.0,8.1,91,0.00,,,0.00,WUHU216HW,2013-03-08 16:42:00,
2013-03-08 11:47:00,30.1,27.8,29.98,North,0,4.2,8.1,91,0.00,,,0.00,WUHU216HW,2013-03-08 16:47:00,
2013-03-08 11:52:00,30.1,27.8,29.99,NNE,23,3.1,6.5,91,0.00,,,0.00,WUHU216HW,2013-03-08 16:52:00,
2013-03-08 11:57:00,29.9,27.6,29.99,NNW,344,6.1,10.7,91,0.00,,,0.00,WUHU216HW,2013-03-08 16:57:00,
2013-03-08 12:02:00,29.9,27.6,29.99,North,353,2.8,10.7,91,0.00,,,0.00,WUHU216HW,2013-03-08 17:02:00,
2013-03-08 12:07:00,30.1,27.8,29.99,North,0,3.1,8.3,91,0.00,,,0.00,WUHU216HW,2013-03-08 17:07:00,
2013-03-08 12:12:00,30.1,27.8,29.99,ENE,68,5.4,5.4,91,0.00,,,0.00,WUHU216HW,2013-03-08 17:12:00,
2013-03-08 12:17:00,30.2,28.0,29.99,North,0,6.0,8.5,91,0.00,,,0.00,WUHU216HW,2013-03-08 17:17:00,
2013-03-08 12:22:00,30.2,28.0,29.99,NNE,23,5.6,8.5,91,0.00,,,0.00,WUHU216HW,2013-03-08 17:22:00,
2013-03-08 12:27:00,30.4,28.2,29.99,NNE,13,3.1,6.0,91,0.00,,,0.00,WUHU216HW,2013-03-08 17:27:00,
2013-03-08 12:32:00,30.4,28.2,29.99,NNE,23,2.8,4.0,91,0.00,,,0.00,WUHU216HW,2013-03-08 17:32:00,
2013-03-08 12:37:00,30.6,28.4,29.99,NNE,23,3.8,5.4,91,0.00,,,0.00,WUHU216HW,2013-03-08 17:37:00,
2013-03-08 12:42:00,30.8,28.5,29.99,East,90,3.4,5.4,91,0.00,,,0.00,WUHU216HW,2013-03-08 17:42:00,
2013-03-08 12:47:00,30.8,28.5,30.00,NNE,23,6.7,7.2,91,0.00,,,0.00,WUHU216HW,2013-03-08 17:47:00,
2013-03-08 12:52:00,30.8,28.5,30.00,NNE,13,4.2,7.2,91,0.00,,,0.00,WUHU216HW,2013-03-08 17:52:00,
2013-03-08 12:57:00,30.6,28.4,30.00,NE,45,6.7,6.7,91,0.00,,,0.00,WUHU216HW,2013-03-08 17:57:00,
2013-03-08 13:02:00,30.6,28.4,30.00,NNE,21,3.3,6.7,91,0.00,,,0.00,WUHU216HW,2013-03-08 18:02:00,
2013-03-08 13:07:00,30.8,28.5,30.00,North,0,2.5,6.0,91,0.00,,,0.00,WUHU216HW,2013-03-08 18:07:00,
2013-03-08 13:12:00,31.0,28.7,30.00,NE,44,4.9,9.4,91,0.00,,,0.00,WUHU216HW,2013-03-08 18:12:00,
2013-03-08 13:17:00,31.0,28.7,30.00,North,359,2.1,9.4,91,0.00,,,0.00,WUHU216HW,2013-03-08 18:17:00,
2013-03-08 13:22:00,31.1,28.9,30.00,North,0,4.5,7.2,91,0.00,,,0.00,WUHU216HW,2013-03-08 18:22:00,
2013-03-08 13:27:00,31.3,29.1,30.00,NE,45,4.0,4.5,91,0.00,,,0.00,WUHU216HW,2013-03-08 18:27:00,
2013-03-08 13:32:00,31.5,29.3,29.99,NE,35,3.3,4.3,91,0.00,,,0.00,WUHU216HW,2013-03-08 18:32:00,
2013-03-08 13:37:00,31.7,29.4,29.99,NNW,338,4.5,4.5,91,0.00,,,0.00,WUHU216HW,2013-03-08 18:37:00,
2013-03-08 13:42:00,31.7,29.4,30.00,North,0,4.9,6.0,91,0.00,,,0.00,WUHU216HW,2013-03-08 18:42:00,
2013-03-08 13:47:00,31.9,29.6,30.00,SE,136,4.5,6.7,91,0.00,,,0.00,WUHU216HW,2013-03-08 18:47:00,
2013-03-08 13:52:00,31.9,29.3,30.00,ENE,59,3.2,6.7,90,0.00,,,0.00,WUHU216HW,2013-03-08 18:52:00,
2013-03-08 13:57:00,32.0,29.5,30.00,NE,54,2.9,5.4,90,0.00,,,0.00,WUHU216HW,2013-03-08 18:57:00,
2013-03-08 14:02:00,32.0,29.8,30.00,NE,39,7.7,8.5,91,0.00,,,0.00,WUHU216HW,2013-03-08 19:02:00,
2013-03-08 14:07:00,32.0,29.5,30.01,NNE,23,8.5,8.5,90,0.00,,,0.00,WUHU216HW,2013-03-08 19:07:00,
2013-03-08 14:12:00,32.4,29.5,30.01,East,90,4.5,8.5,89,0.00,,,0.00,WUHU216HW,2013-03-08 19:12:00,
2013-03-08 14:17:00,32.6,29.7,30.01,East,90,3.7,8.1,89,0.00,,,0.00,WUHU216HW,2013-03-08 19:17:00,
2013-03-08 14:22:00,32.8,29.6,30.00,ENE,64,2.2,4.7,88,0.00,,,0.00,WUHU216HW,2013-03-08 19:22:00,
2013-03-08 14:27:00,32.9,29.4,30.00,East,79,1.1,6.0,87,0.00,,,0.00,WUHU216HW,2013-03-08 19:27:00,
2013-03-08 14:32:00,33.5,29.7,30.00,North,0,3.6,6.0,86,0.00,,,0.00,WUHU216HW,2013-03-08 19:32:00,
2013-03-08 14:37:00,33.8,29.4,30.00,NNW,338,2.5,5.4,84,0.00,,,0.00,WUHU216HW,2013-03-08 19:37:00,
2013-03-08 14:42:00,34.4,30.0,30.01,NE,45,4.0,5.4,84,0.00,,,0.00,WUHU216HW,2013-03-08 19:42:00,
2013-03-08 14:47:00,35.1,29.5,30.01,ENE,68,4.9,5.4,80,0.00,,,0.00,WUHU216HW,2013-03-08 19:47:00,
2013-03-08 14:52:00,35.6,30.1,30.01,North,1,2.1,6.9,80,0.00,,,0.00,WUHU216HW,2013-03-08 19:52:00,
2013-03-08 14:57:00,36.0,29.4,30.01,NNW,348,4.3,6.9,77,0.00,,,0.00,WUHU216HW,2013-03-08 19:57:00,
2013-03-08 15:02:00,36.4,29.5,30.01,North,356,3.7,5.8,76,0.01,,,0.01,WUHU216HW,2013-03-08 20:02:00,
2013-03-08 15:07:00,36.7,29.9,30.01,NW,306,5.3,5.8,76,0.01,,,0.01,WUHU216HW,2013-03-08 20:07:00,
2013-03-08 15:12:00,36.7,28.9,30.01,NNE,23,4.5,5.6,73,0.01,,,0.01,WUHU216HW,2013-03-08 20:12:00,
2013-03-08 15:17:00,37.1,29.3,30.02,NE,36,2.2,7.4,73,0.01,,,0.01,WUHU216HW,2013-03-08 20:17:00,
2013-03-08 15:22:00,37.1,28.3,30.02,North,357,2.3,7.4,70,0.01,,,0.01,WUHU216HW,2013-03-08 20:22:00,
2013-03-08 15:27:00,37.1,28.6,30.02,North,0,6.5,6.5,71,0.01,,,0.01,WUHU216HW,2013-03-08 20:27:00,
2013-03-08 15:32:00,37.1,28.6,30.02,NNE,23,5.4,6.5,71,0.01,,,0.01,WUHU216HW,2013-03-08 20:32:00,
2013-03-08 15:37:00,37.3,28.8,30.03,NNE,12,2.3,5.4,71,0.01,,,0.01,WUHU216HW,2013-03-08 20:37:00,
2013-03-08 15:42:00,37.1,28.6,30.03,North,0,2.9,3.6,71,0.01,,,0.01,WUHU216HW,2013-03-08 20:42:00,
2013-03-08 15:47:00,37.3,27.7,30.03,NNE,32,4.9,6.3,68,0.01,,,0.01,WUHU216HW,2013-03-08 20:47:00,
2013-03-08 15:52:00,37.4,28.6,30.03,NNE,23,6.3,6.3,70,0.01,,,0.01,WUHU216HW,2013-03-08 20:52:00,
2013-03-08 15:57:00,37.4,27.9,30.03,NNW,336,1.7,6.3,68,0.00,,,0.01,WUHU216HW,2013-03-08 20:57:00,
2013-03-08 16:02:00,37.4,28.3,30.04,NE,45,3.8,4.3,69,0.00,,,0.01,WUHU216HW,2013-03-08 21:02:00,
2013-03-08 16:07:00,37.3,28.8,30.04,NE,45,3.4,4.5,71,0.00,,,0.01,WUHU216HW,2013-03-08 21:07:00,
2013-03-08 16:12:00,37.3,28.4,30.05,NNE,23,3.2,4.5,70,0.00,,,0.01,WUHU216HW,2013-03-08 21:12:00,
2013-03-08 16:17:00,37.3,28.1,30.05,NNE,23,2.9,8.1,69,0.00,,,0.01,WUHU216HW,2013-03-08 21:17:00,
2013-03-08 16:22:00,37.1,28.3,30.05,NE,37,3.7,8.1,70,0.00,,,0.01,WUHU216HW,2013-03-08 21:22:00,
2013-03-08 16:27:00,37.1,27.9,30.05,North,10,2.3,5.6,69,0.00,,,0.01,WUHU216HW,2013-03-08 21:27:00,
2013-03-08 16:32:00,37.1,27.9,30.05,NNE,33,3.0,6.3,69,0.00,,,0.01,WUHU216HW,2013-03-08 21:32:00,
2013-03-08 16:37:00,37.1,28.3,30.04,West,270,1.8,6.9,70,0.00,,,0.01,WUHU216HW,2013-03-08 21:37:00,
2013-03-08 16:42:00,37.1,28.6,30.04,NNE,23,4.3,6.9,71,0.00,,,0.01,WUHU216HW,2013-03-08 21:42:00,
2013-03-08 16:47:00,37.1,28.6,30.05,North,0,2.5,5.4,71,0.00,,,0.01,WUHU216HW,2013-03-08 21:47:00,
2013-03-08 16:52:00,37.1,28.6,30.05,ENE,59,2.3,5.4,71,0.00,,,0.01,WUHU216HW,2013-03-08 21:52:00,
2013-03-08 16:57:00,37.1,28.6,30.05,North,0,3.6,4.0,71,0.00,,,0.01,WUHU216HW,2013-03-08 21:57:00,
2013-03-08 17:02:00,36.9,28.5,30.05,NNW,340,2.0,4.0,71,0.00,,,0.01,WUHU216HW,2013-03-08 22:02:00,
2013-03-08 17:07:00,36.9,28.5,30.06,NNE,23,6.3,6.3,71,0.00,,,0.01,WUHU216HW,2013-03-08 22:07:00,
2013-03-08 17:12:00,36.9,28.1,30.06,North,0,3.6,6.3,70,0.00,,,0.01,WUHU216HW,2013-03-08 22:12:00,
2013-03-08 17:17:00,36.7,28.3,30.07,North,10,3.1,5.4,71,0.00,,,0.01,WUHU216HW,2013-03-08 22:17:00,
2013-03-08 17:22:00,36.7,28.3,30.07,NNE,23,6.7,6.7,71,0.00,,,0.01,WUHU216HW,2013-03-08 22:22:00,
2013-03-08 17:27:00,36.7,28.3,30.07,NNE,23,2.0,6.7,71,0.00,,,0.01,WUHU216HW,2013-03-08 22:27:00,
2013-03-08 17:32:00,36.5,28.1,30.07,NNE,23,3.8,5.4,71,0.00,,,0.01,WUHU216HW,2013-03-08 22:32:00,
2013-03-08 17:37:00,36.5,28.1,30.07,North,0,2.5,5.4,71,0.00,,,0.01,WUHU216HW,2013-03-08 22:37:00,
2013-03-08 17:42:00,36.5,28.1,30.07,NE,50,2.8,3.4,71,0.00,,,0.01,WUHU216HW,2013-03-08 22:42:00,
2013-03-08 17:47:00,36.4,27.9,30.07,NNE,23,1.6,3.4,71,0.00,,,0.01,WUHU216HW,2013-03-08 22:47:00,
2013-03-08 17:52:00,36.4,28.2,30.07,North,0,1.5,2.0,72,0.00,,,0.01,WUHU216HW,2013-03-08 22:52:00,
2013-03-08 17:57:00,36.4,28.2,30.07,NNE,23,3.6,3.6,72,0.00,,,0.01,WUHU216HW,2013-03-08 22:57:00,
2013-03-08 18:03:00,36.4,27.9,30.08,NNE,23,3.4,3.6,71,0.00,,,0.01,WUHU216HW,2013-03-08 23:03:00,
2013-03-08 18:08:00,36.4,27.9,30.09,North,0,0.7,3.4,71,0.00,,,0.01,WUHU216HW,2013-03-08 23:08:00,
2013-03-08 18:13:00,36.4,27.9,30.09,NNW,338,2.5,3.4,71,0.00,,,0.01,WUHU216HW,2013-03-08 23:13:00,
2013-03-08 18:18:00,36.5,28.1,30.10,NW,309,1.0,3.4,71,0.00,,,0.01,WUHU216HW,2013-03-08 23:18:00,
2013-03-08 18:23:00,36.7,27.9,30.09,NNW,338,4.0,4.0,70,0.00,,,0.01,WUHU216HW,2013-03-08 23:23:00,
2013-03-08 18:28:00,36.7,27.9,30.09,North,0,1.8,4.0,70,0.00,,,0.01,WUHU216HW,2013-03-08 23:28:00,
2013-03-08 18:33:00,36.7,27.9,30.09,NNW,332,1.5,2.5,70,0.00,,,0.01,WUHU216HW,2013-03-08 23:33:00,
2013-03-08 18:38:00,36.9,27.7,30.09,NNW,338,1.8,3.1,69,0.00,,,0.01,WUHU216HW,2013-03-08 23:38:00,
2013-03-08 18:43:00,36.9,27.7,30.10,North,5,4.0,5.8,69,0.00,,,0.01,WUHU216HW,2013-03-08 23:43:00,
2013-03-08 18:48:00,36.9,27.4,30.10,NNE,23,2.2,5.8,68,0.00,,,0.01,WUHU216HW,2013-03-08 23:48:00,
2013-03-08 18:53:00,36.9,27.7,30.10,NW,319,2.1,3.6,69,0.00,,,0.01,WUHU216HW,2013-03-08 23:53:00,
2013-03-08 18:58:00,37.1,27.6,30.10,North,1,2.6,3.6,68,0.00,,,0.01,WUHU216HW,2013-03-08 23:58:00,
2013-03-08 19:03:00,37.1,27.2,30.10,NNE,23,3.4,3.4,67,0.00,,,0.01,WUHU216HW,2013-03-09 00:03:00,
2013-03-08 19:08:00,37.4,27.1,30.09,NNE,23,3.8,4.0,66,0.00,,,0.01,WUHU216HW,2013-03-09 00:08:00,
2013-03-08 19:13:00,37.3,26.2,30.10,NNW,338,2.2,4.9,64,0.00,,,0.01,WUHU216HW,2013-03-09 00:13:00,
2013-03-08 19:18:00,37.3,26.2,30.10,WNW,293,2.9,4.9,64,0.00,,,0.01,WUHU216HW,2013-03-09 00:18:00,
2013-03-08 19:23:00,37.3,26.2,30.10,NNW,330,2.0,2.9,64,0.00,,,0.01,WUHU216HW,2013-03-09 00:23:00,
2013-03-08 19:28:00,37.1,25.7,30.10,North,351,3.7,5.4,63,0.00,,,0.01,WUHU216HW,2013-03-09 00:28:00,
2013-03-08 19:33:00,36.9,25.8,30.11,NW,315,3.1,5.4,64,0.00,,,0.01,WUHU216HW,2013-03-09 00:33:00,
2013-03-08 19:38:00,36.7,25.3,30.11,North,0,2.3,3.1,63,0.00,,,0.01,WUHU216HW,2013-03-09 00:38:00,
2013-03-08 19:43:00,36.9,25.5,30.11,NNW,338,1.1,2.9,63,0.00,,,0.01,WUHU216HW,2013-03-09 00:43:00,
2013-03-08 19:48:00,36.5,25.1,30.11,ENE,68,4.7,4.7,63,0.00,,,0.01,WUHU216HW,2013-03-09 00:48:00,
2013-03-08 19:53:00,36.4,24.6,30.11,South,180,3.4,4.7,62,0.00,,,0.01,WUHU216HW,2013-03-09 00:53:00,
2013-03-08 19:58:00,36.4,24.6,30.11,NW,320,2.5,4.0,62,0.00,,,0.01,WUHU216HW,2013-03-09 00:58:00,
2013-03-08 20:03:00,36.4,24.6,30.11,NNW,338,2.0,4.0,62,0.00,,,0.01,WUHU216HW,2013-03-09 01:03:00,
2013-03-08 20:08:00,36.5,24.4,30.12,NW,315,2.5,3.4,61,0.00,,,0.01,WUHU216HW,2013-03-09 01:08:00,
2013-03-08 20:13:00,36.7,24.2,30.12,North,353,4.1,5.4,60,0.00,,,0.01,WUHU216HW,2013-03-09 01:13:00,
2013-03-08 20:18:00,36.9,24.4,30.12,WNW,293,2.5,5.4,60,0.00,,,0.01,WUHU216HW,2013-03-09 01:18:00,
2013-03-08 20:23:00,36.7,23.8,30.12,North,0,2.3,2.7,59,0.00,,,0.01,WUHU216HW,2013-03-09 01:23:00,
2013-03-08 20:28:00,36.9,23.5,30.12,NNW,332,2.5,3.4,58,0.00,,,0.01,WUHU216HW,2013-03-09 01:28:00,
2013-03-08 20:33:00,37.1,23.2,30.12,North,0,2.3,3.6,57,0.00,,,0.01,WUHU216HW,2013-03-09 01:33:00,
2013-03-08 20:38:00,37.1,22.8,30.12,North,0,1.8,4.0,56,0.00,,,0.01,WUHU216HW,2013-03-09 01:38:00,
2013-03-08 20:43:00,37.3,22.5,30.12,North,0,2.5,4.3,55,0.00,,,0.01,WUHU216HW,2013-03-09 01:43:00,
2013-03-08 20:48:00,37.3,22.5,30.12,WNW,293,4.0,5.4,55,0.00,,,0.01,WUHU216HW,2013-03-09 01:48:00,
2013-03-08 20:53:00,37.1,22.3,30.13,NNW,338,4.7,5.4,55,0.00,,,0.01,WUHU216HW,2013-03-09 01:53:00,
2013-03-08 20:58:00,37.4,21.8,30.13,NNE,25,4.3,6.9,53,0.00,,,0.01,WUHU216HW,2013-03-09 01:58:00,
2013-03-08 21:03:00,37.6,22.0,30.13,NE,45,4.3,6.9,53,0.00,,,0.01,WUHU216HW,2013-03-09 02:03:00,
2013-03-08 21:08:00,37.4,21.8,30.13,NNW,338,4.7,6.5,53,0.00,,,0.01,WUHU216HW,2013-03-09 02:08:00,
2013-03-08 21:13:00,37.3,21.7,30.13,NE,45,2.5,8.9,53,0.00,,,0.01,WUHU216HW,2013-03-09 02:13:00,
2013-03-08 21:18:00,37.3,21.7,30.14,WNW,293,3.4,8.9,53,0.00,,,0.01,WUHU216HW,2013-03-09 02:18:00,
2013-03-08 21:23:00,37.3,21.7,30.14,NNW,336,2.4,4.7,53,0.00,,,0.01,WUHU216HW,2013-03-09 02:23:00,